Year,Month,Day,Hour,Minute,Value (Times are PST for temperature in C)
2016,08,18,00,00,19.90
2016,08,18,00,01,19.90
2016,08,18,00,02,19.90
2016,08,18,00,03,19.90
2016,08,18,00,04,19.90
2016,08,18,00,05,19.90
2016,08,18,00,06,19.90
2016,08,18,00,07,19.90
2016,08,18,00,08,19.90
2016,08,18,00,09,19.90
2016,08,18,00,10,19.90
2016,08,18,00,11,19.90
2016,08,18,00,12,19.90
2016,08,18,00,13,19.80
2016,08,18,00,14,19.90
2016,08,18,00,15,19.80
2016,08,18,00,16,19.90
2016,08,18,00,17,19.90
2016,08,18,00,18,19.90
2016,08,18,00,19,19.80
2016,08,18,00,20,19.80
2016,08,18,00,21,19.80
2016,08,18,00,22,19.80
2016,08,18,00,23,19.80
2016,08,18,00,24,19.80
2016,08,18,00,25,19.80
2016,08,18,00,26,19.80
2016,08,18,00,27,19.80
2016,08,18,00,28,19.80
2016,08,18,00,29,19.70
2016,08,18,00,30,19.70
2016,08,18,00,31,19.70
2016,08,18,00,32,19.70
2016,08,18,00,33,19.70
2016,08,18,00,34,19.60
2016,08,18,00,35,19.60
2016,08,18,00,36,19.60
2016,08,18,00,37,19.60
2016,08,18,00,38,19.60
2016,08,18,00,39,19.60
2016,08,18,00,40,19.50
2016,08,18,00,41,19.50
2016,08,18,00,42,19.50
2016,08,18,00,43,19.40
2016,08,18,00,44,19.40
2016,08,18,00,45,19.40
2016,08,18,00,46,19.40
2016,08,18,00,47,19.40
2016,08,18,00,48,19.30
2016,08,18,00,49,19.30
2016,08,18,00,50,19.30
2016,08,18,00,51,19.30
2016,08,18,00,52,19.30
2016,08,18,00,53,19.30
2016,08,18,00,54,19.20
2016,08,18,00,55,19.20
2016,08,18,00,56,19.20
2016,08,18,00,57,19.20
2016,08,18,00,58,19.20
2016,08,18,00,59,19.20
2016,08,18,01,00,19.20
2016,08,18,01,01,19.20
2016,08,18,01,02,19.20
2016,08,18,01,03,19.20
2016,08,18,01,04,19.20
2016,08,18,01,05,19.30
2016,08,18,01,06,19.30
2016,08,18,01,07,19.30
2016,08,18,01,08,19.30
2016,08,18,01,09,19.30
2016,08,18,01,10,19.30
2016,08,18,01,11,19.30
2016,08,18,01,12,19.30
2016,08,18,01,13,19.30
2016,08,18,01,14,19.30
2016,08,18,01,15,19.30
2016,08,18,01,16,19.30
2016,08,18,01,17,19.30
2016,08,18,01,18,19.30
2016,08,18,01,19,19.20
2016,08,18,01,20,19.10
2016,08,18,01,21,19.00
2016,08,18,01,22,19.00
2016,08,18,01,23,18.90
2016,08,18,01,24,18.80
2016,08,18,01,25,18.70
2016,08,18,01,26,18.60
2016,08,18,01,27,18.60
2016,08,18,01,28,18.50
2016,08,18,01,29,18.50
2016,08,18,01,30,18.40
2016,08,18,01,31,18.40
2016,08,18,01,32,18.40
2016,08,18,01,33,18.40
2016,08,18,01,34,18.30
2016,08,18,01,35,18.30
2016,08,18,01,36,18.30
2016,08,18,01,37,18.30
2016,08,18,01,38,18.30
2016,08,18,01,39,18.30
2016,08,18,01,40,18.30
2016,08,18,01,41,18.30
2016,08,18,01,42,18.40
2016,08,18,01,43,18.40
2016,08,18,01,44,18.40
2016,08,18,01,45,18.40
2016,08,18,01,46,18.40
2016,08,18,01,47,18.40
2016,08,18,01,48,18.30
2016,08,18,01,49,18.30
2016,08,18,01,50,18.30
2016,08,18,01,51,18.30
2016,08,18,01,52,18.20
2016,08,18,01,53,18.10
2016,08,18,01,54,18.10
2016,08,18,01,55,18.10
2016,08,18,01,56,18.00
2016,08,18,01,57,18.00
2016,08,18,01,58,17.90
2016,08,18,01,59,17.90
2016,08,18,02,00,17.90
2016,08,18,02,01,17.80
2016,08,18,02,02,17.80
2016,08,18,02,03,17.80
2016,08,18,02,04,17.80
2016,08,18,02,05,17.80
2016,08,18,02,06,17.80
2016,08,18,02,07,17.80
2016,08,18,02,08,17.80
2016,08,18,02,09,17.70
2016,08,18,02,10,17.70
2016,08,18,02,11,17.70
2016,08,18,02,12,17.70
2016,08,18,02,13,17.70
2016,08,18,02,14,17.70
2016,08,18,02,15,17.70
2016,08,18,02,16,17.70
2016,08,18,02,17,17.70
2016,08,18,02,18,17.70
2016,08,18,02,19,17.70
2016,08,18,02,20,17.70
2016,08,18,02,21,17.70
2016,08,18,02,22,17.70
2016,08,18,02,23,17.70
2016,08,18,02,24,17.70
2016,08,18,02,25,17.60
2016,08,18,02,26,17.60
2016,08,18,02,27,17.60
2016,08,18,02,28,17.60
2016,08,18,02,29,17.60
2016,08,18,02,30,17.60
2016,08,18,02,31,17.60
2016,08,18,02,32,17.60
2016,08,18,02,33,17.60
2016,08,18,02,34,17.60
2016,08,18,02,35,17.50
2016,08,18,02,36,17.50
2016,08,18,02,37,17.40
2016,08,18,02,38,17.40
2016,08,18,02,39,17.40
2016,08,18,02,40,17.30
2016,08,18,02,41,17.30
2016,08,18,02,42,17.30
2016,08,18,02,43,17.20
2016,08,18,02,44,17.20
2016,08,18,02,45,17.10
2016,08,18,02,46,17.10
2016,08,18,02,47,17.00
2016,08,18,02,48,17.00
2016,08,18,02,49,17.00
2016,08,18,02,50,16.90
2016,08,18,02,51,16.90
2016,08,18,02,52,16.90
2016,08,18,02,53,16.80
2016,08,18,02,54,16.80
2016,08,18,02,55,16.80
2016,08,18,02,56,16.70
2016,08,18,02,57,16.70
2016,08,18,02,58,16.70
2016,08,18,02,59,16.70
2016,08,18,03,00,16.60
2016,08,18,03,01,16.60
2016,08,18,03,02,16.50
2016,08,18,03,03,16.50
2016,08,18,03,04,16.40
2016,08,18,03,05,16.40
2016,08,18,03,06,16.40
2016,08,18,03,07,16.30
2016,08,18,03,08,16.30
2016,08,18,03,09,16.30
2016,08,18,03,10,16.20
2016,08,18,03,11,16.20
2016,08,18,03,12,16.10
2016,08,18,03,13,16.00
2016,08,18,03,14,15.90
2016,08,18,03,15,15.90
2016,08,18,03,16,15.80
2016,08,18,03,17,15.70
2016,08,18,03,18,15.70
2016,08,18,03,19,15.60
2016,08,18,03,20,15.60
2016,08,18,03,21,15.50
2016,08,18,03,22,15.50
2016,08,18,03,23,15.50
2016,08,18,03,24,15.50
2016,08,18,03,25,15.50
2016,08,18,03,26,15.40
2016,08,18,03,27,15.40
2016,08,18,03,28,15.40
2016,08,18,03,29,15.40
2016,08,18,03,30,15.40
2016,08,18,03,31,15.40
2016,08,18,03,32,15.30
2016,08,18,03,33,15.30
2016,08,18,03,34,15.30
2016,08,18,03,35,15.30
2016,08,18,03,36,15.30
2016,08,18,03,37,15.30
2016,08,18,03,38,15.30
2016,08,18,03,39,15.30
2016,08,18,03,40,15.20
2016,08,18,03,41,15.20
2016,08,18,03,42,15.20
2016,08,18,03,43,15.20
2016,08,18,03,44,15.10
2016,08,18,03,45,15.10
2016,08,18,03,46,15.00
2016,08,18,03,47,15.00
2016,08,18,03,48,14.90
2016,08,18,03,49,14.90
2016,08,18,03,50,14.90
2016,08,18,03,51,14.80
2016,08,18,03,52,14.80
2016,08,18,03,53,14.80
2016,08,18,03,54,14.80
2016,08,18,03,55,14.70
2016,08,18,03,56,14.70
2016,08,18,03,57,14.70
2016,08,18,03,58,14.70
2016,08,18,03,59,14.70
2016,08,18,04,00,14.70
2016,08,18,04,01,14.60
2016,08,18,04,02,14.60
2016,08,18,04,03,14.60
2016,08,18,04,04,14.60
2016,08,18,04,05,14.50
2016,08,18,04,06,14.50
2016,08,18,04,07,14.50
2016,08,18,04,08,14.40
2016,08,18,04,09,14.40
2016,08,18,04,10,14.40
2016,08,18,04,11,14.40
2016,08,18,04,12,14.40
2016,08,18,04,13,14.40
2016,08,18,04,14,14.30
2016,08,18,04,15,14.30
2016,08,18,04,16,14.30
2016,08,18,04,17,14.30
2016,08,18,04,18,14.30
2016,08,18,04,19,14.30
2016,08,18,04,20,14.30
2016,08,18,04,21,14.30
2016,08,18,04,22,14.30
2016,08,18,04,23,14.30
2016,08,18,04,24,14.30
2016,08,18,04,25,14.30
2016,08,18,04,26,14.30
2016,08,18,04,27,14.30
2016,08,18,04,28,14.20
2016,08,18,04,29,14.20
2016,08,18,04,30,14.20
2016,08,18,04,31,14.20
2016,08,18,04,32,14.20
2016,08,18,04,33,14.20
2016,08,18,04,34,14.10
2016,08,18,04,35,14.10
2016,08,18,04,36,14.10
2016,08,18,04,37,14.10
2016,08,18,04,38,14.10
2016,08,18,04,39,14.10
2016,08,18,04,40,14.10
2016,08,18,04,41,14.00
2016,08,18,04,42,14.00
2016,08,18,04,43,14.00
2016,08,18,04,44,14.00
2016,08,18,04,45,14.00
2016,08,18,04,46,14.00
2016,08,18,04,47,13.90
2016,08,18,04,48,13.90
2016,08,18,04,49,13.90
2016,08,18,04,50,13.90
2016,08,18,04,51,13.90
2016,08,18,04,52,13.90
2016,08,18,04,53,13.80
2016,08,18,04,54,13.80
2016,08,18,04,55,13.80
2016,08,18,04,56,13.80
2016,08,18,04,57,13.80
2016,08,18,04,58,13.80
2016,08,18,04,59,13.80
2016,08,18,05,00,13.80
2016,08,18,05,01,13.80
2016,08,18,05,02,13.80
2016,08,18,05,03,13.80
2016,08,18,05,04,13.80
2016,08,18,05,05,13.80
2016,08,18,05,06,13.80
2016,08,18,05,07,13.70
2016,08,18,05,08,13.70
2016,08,18,05,09,13.70
2016,08,18,05,10,13.70
2016,08,18,05,11,13.70
2016,08,18,05,12,13.70
2016,08,18,05,13,13.70
2016,08,18,05,14,13.70
2016,08,18,05,15,13.70
2016,08,18,05,16,13.70
2016,08,18,05,17,13.60
2016,08,18,05,18,13.60
2016,08,18,05,19,13.60
2016,08,18,05,20,13.60
2016,08,18,05,21,13.60
2016,08,18,05,22,13.50
2016,08,18,05,23,13.50
2016,08,18,05,24,13.50
2016,08,18,05,25,13.50
2016,08,18,05,26,13.40
2016,08,18,05,27,13.40
2016,08,18,05,28,13.40
2016,08,18,05,29,13.40
2016,08,18,05,30,13.40
2016,08,18,05,31,13.40
2016,08,18,05,32,13.40
2016,08,18,05,33,13.40
2016,08,18,05,34,13.40
2016,08,18,05,35,13.40
2016,08,18,05,36,13.40
2016,08,18,05,37,13.40
2016,08,18,05,38,13.40
2016,08,18,05,39,13.40
2016,08,18,05,40,13.40
2016,08,18,05,41,13.40
2016,08,18,05,42,13.30
2016,08,18,05,43,13.30
2016,08,18,05,44,13.30
2016,08,18,05,45,13.30
2016,08,18,05,46,13.30
2016,08,18,05,47,13.30
2016,08,18,05,48,13.30
2016,08,18,05,49,13.30
2016,08,18,05,50,13.30
2016,08,18,05,51,13.30
2016,08,18,05,52,13.30
2016,08,18,05,53,13.30
2016,08,18,05,54,13.30
2016,08,18,05,55,13.30
2016,08,18,05,56,13.20
2016,08,18,05,57,13.20
2016,08,18,05,58,13.20
2016,08,18,05,59,13.20
2016,08,18,06,00,13.20
2016,08,18,06,01,13.20
2016,08,18,06,02,13.20
2016,08,18,06,03,13.20
2016,08,18,06,04,13.20
2016,08,18,06,05,13.20
2016,08,18,06,06,13.20
2016,08,18,06,07,13.20
2016,08,18,06,08,13.20
2016,08,18,06,09,13.20
2016,08,18,06,10,13.20
2016,08,18,06,11,13.20
2016,08,18,06,12,13.20
2016,08,18,06,13,13.10
2016,08,18,06,14,13.10
2016,08,18,06,15,13.10
2016,08,18,06,16,13.10
2016,08,18,06,17,13.10
2016,08,18,06,18,13.10
2016,08,18,06,19,13.10
2016,08,18,06,20,13.10
2016,08,18,06,21,13.10
2016,08,18,06,22,13.10
2016,08,18,06,23,13.10
2016,08,18,06,24,13.10
2016,08,18,06,25,13.10
2016,08,18,06,26,13.10
2016,08,18,06,27,13.10
2016,08,18,06,28,13.10
2016,08,18,06,29,13.10
2016,08,18,06,30,13.10
2016,08,18,06,31,13.00
2016,08,18,06,32,13.00
2016,08,18,06,33,13.10
2016,08,18,06,34,13.10
2016,08,18,06,35,13.10
2016,08,18,06,36,13.10
2016,08,18,06,37,13.00
2016,08,18,06,38,13.00
2016,08,18,06,39,13.00
2016,08,18,06,40,13.00
2016,08,18,06,41,13.00
2016,08,18,06,42,13.00
2016,08,18,06,43,13.00
2016,08,18,06,44,12.90
2016,08,18,06,45,13.00
2016,08,18,06,46,13.00
2016,08,18,06,47,13.00
2016,08,18,06,48,13.00
2016,08,18,06,49,13.10
2016,08,18,06,50,13.10
2016,08,18,06,51,13.10
2016,08,18,06,52,13.10
2016,08,18,06,53,13.10
2016,08,18,06,54,13.10
2016,08,18,06,55,13.20
2016,08,18,06,56,13.20
2016,08,18,06,57,13.20
2016,08,18,06,58,13.30
2016,08,18,06,59,13.30
2016,08,18,07,00,13.30
2016,08,18,07,01,13.30
2016,08,18,07,02,13.30
2016,08,18,07,03,13.30
2016,08,18,07,04,13.40
2016,08,18,07,05,13.40
2016,08,18,07,06,13.40
2016,08,18,07,07,13.50
2016,08,18,07,08,13.50
2016,08,18,07,09,13.60
2016,08,18,07,10,13.60
2016,08,18,07,11,13.70
2016,08,18,07,12,13.80
2016,08,18,07,13,13.90
2016,08,18,07,14,14.00
2016,08,18,07,15,14.00
2016,08,18,07,16,14.10
2016,08,18,07,17,14.20
2016,08,18,07,18,14.20
2016,08,18,07,19,14.30
2016,08,18,07,20,14.30
2016,08,18,07,21,14.40
2016,08,18,07,22,14.40
2016,08,18,07,23,14.50
2016,08,18,07,24,14.60
2016,08,18,07,25,14.60
2016,08,18,07,26,14.60
2016,08,18,07,27,14.70
2016,08,18,07,28,14.80
2016,08,18,07,29,14.80
2016,08,18,07,30,14.90
2016,08,18,07,31,15.00
2016,08,18,07,32,15.00
2016,08,18,07,33,15.10
2016,08,18,07,34,15.20
2016,08,18,07,35,15.30
2016,08,18,07,36,15.30
2016,08,18,07,37,15.40
2016,08,18,07,38,15.40
2016,08,18,07,39,15.50
2016,08,18,07,40,15.50
2016,08,18,07,41,15.50
2016,08,18,07,42,15.60
2016,08,18,07,43,15.60
2016,08,18,07,44,15.70
2016,08,18,07,45,15.80
2016,08,18,07,46,15.90
2016,08,18,07,47,15.90
2016,08,18,07,48,15.90
2016,08,18,07,49,15.90
2016,08,18,07,50,16.00
2016,08,18,07,51,16.00
2016,08,18,07,52,16.10
2016,08,18,07,53,16.10
2016,08,18,07,54,16.20
2016,08,18,07,55,16.20
2016,08,18,07,56,16.30
2016,08,18,07,57,16.30
2016,08,18,07,58,16.30
2016,08,18,07,59,16.30
2016,08,18,08,00,16.40
2016,08,18,08,01,16.40
2016,08,18,08,02,16.50
2016,08,18,08,03,16.50
2016,08,18,08,04,16.50
2016,08,18,08,05,16.60
2016,08,18,08,06,16.60
2016,08,18,08,07,16.60
2016,08,18,08,08,16.60
2016,08,18,08,09,16.70
2016,08,18,08,10,16.70
2016,08,18,08,11,16.70
2016,08,18,08,12,16.70
2016,08,18,08,13,16.70
2016,08,18,08,14,16.70
2016,08,18,08,15,16.70
2016,08,18,08,16,16.70
2016,08,18,08,17,16.70
2016,08,18,08,18,16.80
2016,08,18,08,19,16.80
2016,08,18,08,20,16.80
2016,08,18,08,21,16.80
2016,08,18,08,22,16.80
2016,08,18,08,23,16.90
2016,08,18,08,24,16.90
2016,08,18,08,25,17.00
2016,08,18,08,26,17.10
2016,08,18,08,27,17.10
2016,08,18,08,28,17.10
2016,08,18,08,29,17.20
2016,08,18,08,30,17.20
2016,08,18,08,31,17.30
2016,08,18,08,32,17.30
2016,08,18,08,33,17.40
2016,08,18,08,34,17.40
2016,08,18,08,35,17.50
2016,08,18,08,36,17.50
2016,08,18,08,37,17.50
2016,08,18,08,38,17.60
2016,08,18,08,39,17.60
2016,08,18,08,40,17.60
2016,08,18,08,41,17.70
2016,08,18,08,42,17.80
2016,08,18,08,43,17.80
2016,08,18,08,44,17.80
2016,08,18,08,45,17.90
2016,08,18,08,46,17.90
2016,08,18,08,47,17.90
2016,08,18,08,48,18.00
2016,08,18,08,49,18.10
2016,08,18,08,50,18.10
2016,08,18,08,51,18.10
2016,08,18,08,52,18.20
2016,08,18,08,53,18.20
2016,08,18,08,54,18.20
2016,08,18,08,55,18.30
2016,08,18,08,56,18.30
2016,08,18,08,57,18.30
2016,08,18,08,58,18.40
2016,08,18,08,59,18.50
2016,08,18,09,00,18.60
2016,08,18,09,01,18.60
2016,08,18,09,02,18.70
2016,08,18,09,03,18.70
2016,08,18,09,04,18.70
2016,08,18,09,05,18.70
2016,08,18,09,06,18.70
2016,08,18,09,07,18.80
2016,08,18,09,08,18.80
2016,08,18,09,09,18.80
2016,08,18,09,10,18.90
2016,08,18,09,11,18.90
2016,08,18,09,12,18.90
2016,08,18,09,13,19.00
2016,08,18,09,14,19.00
2016,08,18,09,15,19.00
2016,08,18,09,16,19.10
2016,08,18,09,17,19.20
2016,08,18,09,18,19.20
2016,08,18,09,19,19.30
2016,08,18,09,20,19.30
2016,08,18,09,21,19.30
2016,08,18,09,22,19.30
2016,08,18,09,23,19.20
2016,08,18,09,24,19.20
2016,08,18,09,25,19.20
2016,08,18,09,26,19.20
2016,08,18,09,27,19.20
2016,08,18,09,28,19.20
2016,08,18,09,29,19.30
2016,08,18,09,30,19.30
2016,08,18,09,31,19.40
2016,08,18,09,32,19.40
2016,08,18,09,33,19.50
2016,08,18,09,34,19.50
2016,08,18,09,35,19.50
2016,08,18,09,36,19.50
2016,08,18,09,37,19.60
2016,08,18,09,38,19.60
2016,08,18,09,39,19.60
2016,08,18,09,40,19.70
2016,08,18,09,41,19.70
2016,08,18,09,42,19.80
2016,08,18,09,43,19.90
2016,08,18,09,44,19.90
2016,08,18,09,45,20.00
2016,08,18,09,46,20.00
2016,08,18,09,47,20.10
2016,08,18,09,48,20.20
2016,08,18,09,49,20.20
2016,08,18,09,50,20.20
2016,08,18,09,51,20.30
2016,08,18,09,52,20.30
2016,08,18,09,53,20.30
2016,08,18,09,54,20.40
2016,08,18,09,55,20.40
2016,08,18,09,56,20.40
2016,08,18,09,57,20.50
2016,08,18,09,58,20.60
2016,08,18,09,59,20.60
2016,08,18,10,00,20.70
2016,08,18,10,01,20.70
2016,08,18,10,02,20.80
2016,08,18,10,03,20.90
2016,08,18,10,04,20.90
2016,08,18,10,05,21.00
2016,08,18,10,06,21.10
2016,08,18,10,07,21.10
2016,08,18,10,08,21.10
2016,08,18,10,09,21.20
2016,08,18,10,10,21.20
2016,08,18,10,11,21.20
2016,08,18,10,12,21.20
2016,08,18,10,13,21.30
2016,08,18,10,14,21.30
2016,08,18,10,15,21.30
2016,08,18,10,16,21.40
2016,08,18,10,17,21.50
2016,08,18,10,18,21.60
2016,08,18,10,19,21.60
2016,08,18,10,20,21.70
2016,08,18,10,21,21.80
2016,08,18,10,22,21.90
2016,08,18,10,23,22.00
2016,08,18,10,24,22.10
2016,08,18,10,25,22.20
2016,08,18,10,26,22.30
2016,08,18,10,27,22.50
2016,08,18,10,28,22.50
2016,08,18,10,29,22.60
2016,08,18,10,30,22.60
2016,08,18,10,31,22.70
2016,08,18,10,32,22.80
2016,08,18,10,33,22.80
2016,08,18,10,34,22.80
2016,08,18,10,35,22.80
2016,08,18,10,36,22.80
2016,08,18,10,37,22.80
2016,08,18,10,38,22.80
2016,08,18,10,39,22.80
2016,08,18,10,40,22.90
2016,08,18,10,41,22.90
2016,08,18,10,42,23.00
2016,08,18,10,43,23.20
2016,08,18,10,44,23.30
2016,08,18,10,45,23.40
2016,08,18,10,46,23.40
2016,08,18,10,47,23.60
2016,08,18,10,48,23.70
2016,08,18,10,49,23.80
2016,08,18,10,50,23.90
2016,08,18,10,51,24.00
2016,08,18,10,52,24.10
2016,08,18,10,53,24.20
2016,08,18,10,54,24.30
2016,08,18,10,55,24.40
2016,08,18,10,56,24.40
2016,08,18,10,57,24.50
2016,08,18,10,58,24.40
2016,08,18,10,59,24.40
2016,08,18,11,00,24.40
2016,08,18,11,01,24.40
2016,08,18,11,02,24.40
2016,08,18,11,03,24.40
2016,08,18,11,04,24.40
2016,08,18,11,05,24.40
2016,08,18,11,06,24.40
2016,08,18,11,07,24.40
2016,08,18,11,08,24.40
2016,08,18,11,09,24.30
2016,08,18,11,10,24.30
2016,08,18,11,11,24.30
2016,08,18,11,12,24.40
2016,08,18,11,13,24.40
2016,08,18,11,14,24.50
2016,08,18,11,15,24.50
2016,08,18,11,16,24.60
2016,08,18,11,17,24.60
2016,08,18,11,18,24.60
2016,08,18,11,19,24.70
2016,08,18,11,20,24.70
2016,08,18,11,21,24.80
2016,08,18,11,22,24.90
2016,08,18,11,23,24.90
2016,08,18,11,24,25.00
2016,08,18,11,25,25.10
2016,08,18,11,26,25.10
2016,08,18,11,27,25.20
2016,08,18,11,28,25.30
2016,08,18,11,29,25.30
2016,08,18,11,30,25.40
2016,08,18,11,31,25.40
2016,08,18,11,32,25.40
2016,08,18,11,33,25.60
2016,08,18,11,34,25.60
2016,08,18,11,35,25.60
2016,08,18,11,36,25.60
2016,08,18,11,37,25.70
2016,08,18,11,38,25.70
2016,08,18,11,39,25.70
2016,08,18,11,40,25.70
2016,08,18,11,41,25.70
2016,08,18,11,42,25.70
2016,08,18,11,43,25.60
2016,08,18,11,44,25.60
2016,08,18,11,45,25.50
2016,08,18,11,46,25.40
2016,08,18,11,47,25.30
2016,08,18,11,48,25.30
2016,08,18,11,49,25.30
2016,08,18,11,50,25.20
2016,08,18,11,51,25.10
2016,08,18,11,52,25.10
2016,08,18,11,53,25.10
2016,08,18,11,54,25.00
2016,08,18,11,55,24.90
2016,08,18,11,56,24.80
2016,08,18,11,57,24.80
2016,08,18,11,58,24.70
2016,08,18,11,59,24.70
2016,08,18,12,00,24.70
2016,08,18,12,01,24.70
2016,08,18,12,02,24.70
2016,08,18,12,03,24.70
2016,08,18,12,04,24.70
2016,08,18,12,05,24.80
2016,08,18,12,06,24.70
2016,08,18,12,07,24.70
2016,08,18,12,08,24.70
2016,08,18,12,09,24.70
2016,08,18,12,10,24.80
2016,08,18,12,11,24.80
2016,08,18,12,12,24.80
2016,08,18,12,13,24.80
2016,08,18,12,14,24.80
2016,08,18,12,15,24.80
2016,08,18,12,16,24.70
2016,08,18,12,17,24.70
2016,08,18,12,18,24.70
2016,08,18,12,19,24.70
2016,08,18,12,20,24.70
2016,08,18,12,21,24.80
2016,08,18,12,22,24.80
2016,08,18,12,23,24.80
2016,08,18,12,24,24.80
2016,08,18,12,25,24.80
2016,08,18,12,26,24.90
2016,08,18,12,27,24.90
2016,08,18,12,28,25.00
2016,08,18,12,29,25.00
2016,08,18,12,30,25.10
2016,08,18,12,31,25.10
2016,08,18,12,32,25.10
2016,08,18,12,33,25.20
2016,08,18,12,34,25.20
2016,08,18,12,35,25.20
2016,08,18,12,36,25.20
2016,08,18,12,37,25.20
2016,08,18,12,38,25.30
2016,08,18,12,39,25.30
2016,08,18,12,40,25.30
2016,08,18,12,41,25.30
2016,08,18,12,42,25.30
2016,08,18,12,43,25.30
2016,08,18,12,44,25.30
2016,08,18,12,45,25.30
2016,08,18,12,46,25.30
2016,08,18,12,47,25.30
2016,08,18,12,48,25.30
2016,08,18,12,49,25.30
2016,08,18,12,50,25.40
2016,08,18,12,51,25.50
2016,08,18,12,52,25.50
2016,08,18,12,53,25.60
2016,08,18,12,54,25.60
2016,08,18,12,55,25.60
2016,08,18,12,56,25.60
2016,08,18,12,57,25.50
2016,08,18,12,58,25.40
2016,08,18,12,59,25.40
2016,08,18,13,00,25.40
2016,08,18,13,01,25.40
2016,08,18,13,02,25.40
2016,08,18,13,03,25.40
2016,08,18,13,04,25.40
2016,08,18,13,05,25.40
2016,08,18,13,06,25.40
2016,08,18,13,07,25.50
2016,08,18,13,08,25.50
2016,08,18,13,09,25.40
2016,08,18,13,10,25.40
2016,08,18,13,11,25.40
2016,08,18,13,12,25.50
2016,08,18,13,13,25.50
2016,08,18,13,14,25.60
2016,08,18,13,15,25.70
2016,08,18,13,16,25.80
2016,08,18,13,17,25.90
2016,08,18,13,18,26.10
2016,08,18,13,19,26.20
2016,08,18,13,20,26.20
2016,08,18,13,21,26.30
2016,08,18,13,22,26.40
2016,08,18,13,23,26.40
2016,08,18,13,24,26.40
2016,08,18,13,25,26.40
2016,08,18,13,26,26.40
2016,08,18,13,27,26.40
2016,08,18,13,28,26.50
2016,08,18,13,29,26.60
2016,08,18,13,30,26.70
2016,08,18,13,31,26.70
2016,08,18,13,32,26.80
2016,08,18,13,33,26.90
2016,08,18,13,34,27.00
2016,08,18,13,35,27.00
2016,08,18,13,36,27.00
2016,08,18,13,37,27.00
2016,08,18,13,38,26.90
2016,08,18,13,39,26.90
2016,08,18,13,40,26.90
2016,08,18,13,41,27.00
2016,08,18,13,42,27.10
2016,08,18,13,43,27.10
2016,08,18,13,44,27.20
2016,08,18,13,45,27.30
2016,08,18,13,46,27.30
2016,08,18,13,47,27.40
2016,08,18,13,48,27.40
2016,08,18,13,49,27.40
2016,08,18,13,50,27.50
2016,08,18,13,51,27.50
2016,08,18,13,52,27.60
2016,08,18,13,53,27.70
2016,08,18,13,54,27.70
2016,08,18,13,55,27.80
2016,08,18,13,56,27.80
2016,08,18,13,57,27.80
2016,08,18,13,58,27.90
2016,08,18,13,59,27.90
2016,08,18,14,00,27.90
2016,08,18,14,01,27.90
2016,08,18,14,02,27.90
2016,08,18,14,03,27.90
2016,08,18,14,04,27.90
2016,08,18,14,05,27.90
2016,08,18,14,06,27.90
2016,08,18,14,07,27.90
2016,08,18,14,08,27.90
2016,08,18,14,09,27.90
2016,08,18,14,10,27.80
2016,08,18,14,11,27.80
2016,08,18,14,12,27.70
2016,08,18,14,13,27.70
2016,08,18,14,14,27.70
2016,08,18,14,15,27.60
2016,08,18,14,16,27.60
2016,08,18,14,17,27.60
2016,08,18,14,18,27.60
2016,08,18,14,19,27.60
2016,08,18,14,20,27.60
2016,08,18,14,21,27.70
2016,08,18,14,22,27.70
2016,08,18,14,23,27.70
2016,08,18,14,24,27.80
2016,08,18,14,25,27.80
2016,08,18,14,26,27.90
2016,08,18,14,27,27.80
2016,08,18,14,28,27.80
2016,08,18,14,29,27.80
2016,08,18,14,30,27.80
2016,08,18,14,31,27.80
2016,08,18,14,32,27.90
2016,08,18,14,33,27.90
2016,08,18,14,34,27.90
2016,08,18,14,35,27.80
2016,08,18,14,36,27.80
2016,08,18,14,37,27.80
2016,08,18,14,38,27.90
2016,08,18,14,39,27.90
2016,08,18,14,40,27.80
2016,08,18,14,41,27.80
2016,08,18,14,42,27.80
2016,08,18,14,43,27.80
2016,08,18,14,44,27.80
2016,08,18,14,45,27.80
2016,08,18,14,46,27.80
2016,08,18,14,47,27.80
2016,08,18,14,48,27.90
2016,08,18,14,49,27.90
2016,08,18,14,50,28.00
2016,08,18,14,51,28.00
2016,08,18,14,52,28.00
2016,08,18,14,53,28.10
2016,08,18,14,54,28.10
2016,08,18,14,55,28.20
2016,08,18,14,56,28.20
2016,08,18,14,57,28.30
2016,08,18,14,58,28.40
2016,08,18,14,59,28.50
2016,08,18,15,00,28.60
2016,08,18,15,01,28.70
2016,08,18,15,02,28.90
2016,08,18,15,03,29.00
2016,08,18,15,04,29.10
2016,08,18,15,05,29.10
2016,08,18,15,06,29.20
2016,08,18,15,07,29.20
2016,08,18,15,08,29.20
2016,08,18,15,09,29.10
2016,08,18,15,10,29.10
2016,08,18,15,11,29.10
2016,08,18,15,12,29.10
2016,08,18,15,13,29.10
2016,08,18,15,14,29.20
2016,08,18,15,15,29.20
2016,08,18,15,16,29.20
2016,08,18,15,17,29.20
2016,08,18,15,18,29.20
2016,08,18,15,19,29.20
2016,08,18,15,20,29.20
2016,08,18,15,21,29.20
2016,08,18,15,22,29.20
2016,08,18,15,23,29.30
2016,08,18,15,24,29.30
2016,08,18,15,25,29.30
2016,08,18,15,26,29.30
2016,08,18,15,27,29.30
2016,08,18,15,28,29.30
2016,08,18,15,29,29.30
2016,08,18,15,30,29.30
2016,08,18,15,31,29.30
2016,08,18,15,32,29.40
2016,08,18,15,33,29.50
2016,08,18,15,34,29.60
2016,08,18,15,35,29.60
2016,08,18,15,36,29.70
2016,08,18,15,37,29.80
2016,08,18,15,38,29.80
2016,08,18,15,39,29.80
2016,08,18,15,40,29.80
2016,08,18,15,41,29.80
2016,08,18,15,42,29.80
2016,08,18,15,43,29.90
2016,08,18,15,44,29.90
2016,08,18,15,45,29.90
2016,08,18,15,46,30.00
2016,08,18,15,47,30.00
2016,08,18,15,48,30.10
2016,08,18,15,49,30.20
2016,08,18,15,50,30.30
2016,08,18,15,51,30.40
2016,08,18,15,52,30.50
2016,08,18,15,53,30.60
2016,08,18,15,54,30.70
2016,08,18,15,55,30.80
2016,08,18,15,56,30.80
2016,08,18,15,57,30.90
2016,08,18,15,58,30.90
2016,08,18,15,59,31.00
2016,08,18,16,00,31.00
2016,08,18,16,01,31.00
2016,08,18,16,02,30.90
2016,08,18,16,03,30.90
2016,08,18,16,04,31.00
2016,08,18,16,05,31.00
2016,08,18,16,06,31.10
2016,08,18,16,07,31.10
2016,08,18,16,08,31.20
2016,08,18,16,09,31.20
2016,08,18,16,10,31.20
2016,08,18,16,11,31.20
2016,08,18,16,12,31.20
2016,08,18,16,13,31.20
2016,08,18,16,14,31.20
2016,08,18,16,15,31.20
2016,08,18,16,16,31.20
2016,08,18,16,17,31.30
2016,08,18,16,18,31.30
2016,08,18,16,19,31.30
2016,08,18,16,20,31.30
2016,08,18,16,21,31.30
2016,08,18,16,22,31.40
2016,08,18,16,23,31.40
2016,08,18,16,24,31.50
2016,08,18,16,25,31.50
2016,08,18,16,26,31.50
2016,08,18,16,27,31.50
2016,08,18,16,28,31.50
2016,08,18,16,29,31.50
2016,08,18,16,30,31.50
2016,08,18,16,31,31.60
2016,08,18,16,32,31.60
2016,08,18,16,33,31.70
2016,08,18,16,34,31.70
2016,08,18,16,35,31.70
2016,08,18,16,36,31.70
2016,08,18,16,37,31.70
2016,08,18,16,38,31.70
2016,08,18,16,39,31.70
2016,08,18,16,40,31.70
2016,08,18,16,41,31.70
2016,08,18,16,42,31.70
2016,08,18,16,43,31.70
2016,08,18,16,44,31.70
2016,08,18,16,45,31.70
2016,08,18,16,46,31.70
2016,08,18,16,47,31.70
2016,08,18,16,48,31.70
2016,08,18,16,49,31.80
2016,08,18,16,50,31.90
2016,08,18,16,51,32.00
2016,08,18,16,52,32.00
2016,08,18,16,53,32.10
2016,08,18,16,54,32.10
2016,08,18,16,55,32.20
2016,08,18,16,56,32.30
2016,08,18,16,57,32.30
2016,08,18,16,58,32.30
2016,08,18,16,59,32.30
2016,08,18,17,00,32.30
2016,08,18,17,01,32.30
2016,08,18,17,02,32.30
2016,08,18,17,03,32.30
2016,08,18,17,04,32.30
2016,08,18,17,05,32.30
2016,08,18,17,06,32.30
2016,08,18,17,07,32.20
2016,08,18,17,08,32.20
2016,08,18,17,09,32.20
2016,08,18,17,10,32.10
2016,08,18,17,11,32.10
2016,08,18,17,12,32.00
2016,08,18,17,13,32.00
2016,08,18,17,14,32.00
2016,08,18,17,15,31.90
2016,08,18,17,16,31.90
2016,08,18,17,17,31.90
2016,08,18,17,18,32.00
2016,08,18,17,19,32.10